Weather History for Newport, AR

Change the Weather History Date:

Wednesday, February 19, 2014

  Actual Average (KJBR) Record (KJBR)
Temperature  
Mean Temperature 52 °F 42 °F  
Max Temperature 61 °F 52 °F 82 °F (1913)
Min Temperature 43 °F 33 °F 5 °F (1910)
Degree Days  
Heating Degree Days 13 23  
Month to date heating degree days 469  
Since 1 July heating degree days 2765  
Cooling Degree Days 0 0  
Month to date cooling degree days 0  
Year to date cooling degree days 0  
Growing Degree Days 2 (Base 50)    
Moisture  
Dew Point 48 °F    
Average Humidity 82    
Maximum Humidity 100    
Minimum Humidity 44    
Precipitation  
Precipitation 0.00 in 0.15 in 1.55 in (1911)
Month to date precipitation 2.50  
Year to date precipitation 5.93  
Snow  
Snow 0.00 in - 12.00 in (1921)
Month to date snowfall  
Since 1 July snowfall  
Snow Depth -    
Sea Level Pressure  
Sea Level Pressure 29.94 in    
Wind  
Wind Speed 7 mph (NE)    
Max Wind Speed 16 mph    
Max Gust Speed -    
Visibility 6 miles    
Events Fog    
T = Trace of Precipitation, MM = Missing Value Source: NWS Daily Summary

Daily Weather History Graph

Daily Weather History Graph

Search for Another Location

Airport:

Trip Planner

Search our weather history database for the weather conditions in past years. The results will help you decide how hot, cold, wet, or windy it might be!

Date:

Astronomy

Feb. 19, 2014 Rise Set
Actual Time 6:46 AM CST 5:50 PM CST
Civil Twilight 6:21 AM CST 6:16 PM CST
Nautical Twilight 5:51 AM CST 6:46 PM CST
Astronomical Twilight 5:21 AM CST 7:15 PM CST
Moon 10:32 PM CST (2/19) 9:03 AM CST (2/19)
Length of Visible Light 11h 55m
Length of Day
11h 03m
Waning Gibbous, 79% of the Moon is Illuminated
Feb 19
Waning Gibbous
Feb 22
Last Quarter
Mar 1
New
Mar 8
First Quarter
Mar 16
Full

Hourly Weather History & Observations

Time (CST) Temp. Windchill Dew Point Humidity Pressure Visibility Wind Dir Wind Speed Gust Speed Precip Events Conditions
12:56 AM 56.8 °F - 54.9 °F 93% 29.92 in 8.0 mi WSW 4.6 mph - N/A   Clear
1:56 AM 54.0 °F - 52.9 °F 96% 29.92 in 5.0 mi SW 9.2 mph - N/A   Clear
2:56 AM 52.0 °F - 52.0 °F 100% 29.93 in 2.5 mi SW 6.9 mph - N/A   Clear
3:05 AM 51.8 °F - 51.8 °F 100% 29.93 in 1.2 mi SW 4.6 mph - N/A   Clear
3:12 AM 51.8 °F - 51.8 °F 100% 29.93 in 0.8 mi SSW 6.9 mph - N/A   Clear
3:20 AM 50.0 °F - 50.0 °F 100% 29.94 in 0.5 mi SW 5.8 mph - N/A Fog Fog
3:27 AM 51.8 °F - 51.8 °F 100% 29.94 in 1.0 mi SW 5.8 mph - N/A   Clear
3:29 AM 51.8 °F - 51.8 °F 100% 29.94 in 1.8 mi SW 5.8 mph - N/A   Clear
3:35 AM 51.8 °F - 51.8 °F 100% 29.94 in 1.0 mi SW 5.8 mph - N/A   Clear
3:39 AM 51.8 °F - 51.8 °F 100% 29.94 in 0.5 mi SW 5.8 mph - N/A Fog Fog
3:49 AM 51.8 °F - 51.8 °F 100% 29.94 in 0.2 mi West 3.5 mph - N/A Fog Fog
3:56 AM 50.9 °F - 50.9 °F 100% 29.95 in 0.2 mi WNW 5.8 mph - N/A Fog Fog
4:07 AM 48.2 °F - 48.2 °F 100% 29.96 in 0.2 mi NNW 8.1 mph - N/A Fog Fog
4:16 AM 50.0 °F - 50.0 °F 100% 29.97 in 0.2 mi NW 5.8 mph - N/A Fog Fog
4:25 AM 51.8 °F - 51.8 °F 100% 29.97 in 0.8 mi NW 8.1 mph - N/A   Mist
4:27 AM 51.8 °F - 51.8 °F 100% 29.97 in 1.2 mi NW 8.1 mph - N/A   Mostly Cloudy
4:29 AM 51.8 °F - 51.8 °F 100% 29.97 in 2.0 mi NW 8.1 mph - N/A   Partly Cloudy
4:37 AM 51.8 °F - 51.8 °F 100% 29.97 in 7.0 mi NNW 6.9 mph - N/A   Partly Cloudy
4:56 AM 50.0 °F - 50.0 °F 100% 29.98 in 10.0 mi North 6.9 mph - N/A   Clear
5:56 AM 45.9 °F 40.8 °F 39.9 °F 80% 30.01 in 10.0 mi NNW 10.4 mph - N/A   Clear
6:56 AM 43.0 °F 36.4 °F 37.9 °F 82% 30.04 in 10.0 mi North 12.7 mph - N/A   Clear
7:56 AM 46.9 °F - 38.8 °F 73% 30.06 in 10.0 mi NNW 6.9 mph - N/A   Clear
8:56 AM 50.9 °F - 39.9 °F 66% 30.06 in 10.0 mi NNE 9.2 mph - N/A   Clear
9:56 AM 54.0 °F - 38.8 °F 57% 30.07 in 10.0 mi NE 5.8 mph - N/A   Clear
10:56 AM 55.9 °F - 38.8 °F 53% 30.07 in 10.0 mi ENE 9.2 mph - N/A   Clear
11:56 AM 57.9 °F - 41.0 °F 53% 30.05 in 10.0 mi NE 8.1 mph - N/A   Clear
12:56 PM 59.9 °F - 37.9 °F 44% 30.01 in 10.0 mi ENE 10.4 mph - N/A   Clear
1:56 PM 61.0 °F - 38.8 °F 44% 29.97 in 10.0 mi ENE 11.5 mph - N/A   Clear
2:56 PM 61.0 °F - 38.8 °F 44% 29.96 in 10.0 mi East 13.8 mph - N/A   Scattered Clouds
3:56 PM 59.0 °F - 43.0 °F 55% 29.94 in 10.0 mi East 10.4 mph - N/A   Clear
4:56 PM 57.9 °F - 45.9 °F 64% 29.92 in 10.0 mi East 9.2 mph - N/A   Overcast
5:10 PM 57.2 °F - 46.4 °F 67% 29.92 in 10.0 mi ENE 9.2 mph - N/A   Overcast
5:56 PM 56.8 °F - 45.0 °F 64% 29.91 in 10.0 mi East 8.1 mph - N/A   Overcast
6:56 PM 54.9 °F - 43.9 °F 66% 29.89 in 10.0 mi East 6.9 mph - N/A   Overcast
7:56 PM 54.9 °F - 45.0 °F 69% 29.88 in 10.0 mi East 9.2 mph - N/A   Overcast
8:37 PM 55.4 °F - 46.4 °F 72% 29.87 in 10.0 mi ESE 11.5 mph - N/A   Overcast
8:56 PM 55.9 °F - 46.9 °F 72% 29.86 in 10.0 mi ESE 13.8 mph - N/A   Overcast
9:56 PM 57.9 °F - 54.0 °F 87% 29.84 in 8.0 mi SE 8.1 mph - N/A   Overcast
10:56 PM 59.9 °F - 57.9 °F 93% 29.78 in 7.0 mi SSE 16.1 mph - 0.00 in   Overcast
11:10 PM 60.8 °F - 57.2 °F 88% 29.77 in 8.0 mi SSE 16.1 mph - N/A   Mostly Cloudy
11:38 PM 60.8 °F - 57.2 °F 88% 29.79 in 8.0 mi SSE 4.6 mph - N/A   Overcast
11:56 PM 59.9 °F - 57.9 °F 93% 29.78 in 9.0 mi Calm Calm - N/A   Overcast